Location: Asheville, NC
(35.6000°N, 82.5500°W)
Time: 17:02:46
(UTC-05:00)

XW-2B - Pass Details

Date: 10 February 2018
Orbit: 509 x 532 km, 97.5° (Epoch: 18 February)

Event Time Altitude Azimuth Distance (km) Brightness Sun altitude
Rises 05:45:33 0° 29° (NNE) 2,620 ? -20.1°
Reaches altitude 10° 05:48:07 10° 48° (NE) 1,731 ? -19.6°
Maximum altitude 05:50:51 19° 95° (E) 1,255 ? -19.0°
Drops below altitude 10° 05:53:33 10° 142° (SE) 1,727 ? -18.5°
Sets 05:56:06 0° 161° (SSE) 2,611 ? -18.0°
